Weather History for Jerome, ID

Change the Weather History Date:

Thursday, October 25, 2012

  Actual Average Record
Temperature  
Mean Temperature 36 °F 46 °F  
Max Temperature 44 °F 57 °F 81 °F (2005)
Min Temperature 28 °F 35 °F 23 °F (1975)
Degree Days  
Heating Degree Days 29 19  
Month to date heating degree days 384 372  
Since 1 July heating degree days 427 575  
Cooling Degree Days 0 0  
Month to date cooling degree days 0 0  
Year to date cooling degree days 750 509  
Moisture  
Dew Point 29 °F    
Average Humidity 75    
Maximum Humidity 100    
Minimum Humidity 49    
Precipitation  
Precipitation T in 0.03 in 0.56 in (1996)
Month to date precipitation 0.45 0.61  
Year to date precipitation 7.58 7.90  
Sea Level Pressure  
Sea Level Pressure 30.25 in    
Wind  
Wind Speed 11 mph (SW)    
Max Wind Speed 25 mph    
Max Gust Speed 32 mph    
Visibility 8 miles    
Events Fog , Snow    
T = Trace of Precipitation, MM = Missing Value Source: NWS Daily Summary

Daily Weather History Graph

Daily Weather History Graph

Search for Another Location

Airport:

Trip Planner

Search our weather history database for the weather conditions in past years. The results will help you decide how hot, cold, wet, or windy it might be!

Date:

Astronomy

Oct. 25, 2012 Rise Set
Actual Time 8:03 AM MDT 6:39 PM MDT
Civil Twilight 7:34 AM MDT 7:08 PM MDT
Nautical Twilight 7:01 AM MDT 7:41 PM MDT
Astronomical Twilight 6:28 AM MDT 8:13 PM MDT
Moon 4:31 PM MDT (10/25) 3:59 AM MDT (10/25)
Length of Visible Light 11h 33m
Length of Day
10h 35m
Waxing Gibbous, 85% of the Moon is Illuminated
Oct 25
Waxing Gibbous
Oct 29
Full
Nov 6
Last Quarter
Nov 13
New
Nov 20
First Quarter

Hourly Weather History & Observations

Time (MDT) Temp. Windchill Dew Point Humidity Pressure Visibility Wind Dir Wind Speed Gust Speed Precip Events Conditions
12:50 AM 33.8 °F 26.4 °F 33.8 °F 100% 30.11 in 10.0 mi SW 9.2 mph - N/A   Overcast
12:53 AM 34.0 °F 26.6 °F 33.1 °F 96% 30.15 in 9.0 mi SW 9.2 mph - N/A   Overcast
1:37 AM 33.8 °F 28.6 °F 33.8 °F 100% 30.12 in 1.5 mi SSW 5.8 mph - N/A   Overcast
1:46 AM 33.8 °F 29.6 °F 32.0 °F 93% 30.12 in 0.5 mi SSW 4.6 mph - N/A Fog Fog
1:53 AM 32.0 °F 28.7 °F 32.0 °F 100% 30.17 in 0.5 mi SSW 3.5 mph - N/A Fog Fog
2:14 AM 32.0 °F 27.5 °F 32.0 °F 100% 30.13 in 2.5 mi SSW 4.6 mph - N/A   Overcast
2:21 AM 32.0 °F 26.4 °F 30.2 °F 93% 30.13 in 10.0 mi SSW 5.8 mph - N/A   Overcast
2:53 AM 32.0 °F 27.5 °F 30.9 °F 96% 30.17 in 10.0 mi SSW 4.6 mph - N/A   Overcast
3:53 AM 30.0 °F - 28.0 °F 92% 30.17 in 10.0 mi Calm Calm - N/A   Clear
4:36 AM 28.4 °F 24.6 °F 28.4 °F 100% 30.13 in 10.0 mi SSW 3.5 mph - N/A   Scattered Clouds
4:45 AM 30.2 °F 26.7 °F 28.4 °F 93% 30.13 in 10.0 mi South 3.5 mph - N/A   Mostly Cloudy
4:53 AM 30.0 °F 26.5 °F 28.0 °F 92% 30.17 in 10.0 mi South 3.5 mph - N/A   Mostly Cloudy
5:20 AM 28.4 °F - 28.4 °F 100% 30.14 in 10.0 mi Calm Calm - N/A   Scattered Clouds
5:53 AM 30.0 °F - 27.0 °F 88% 30.20 in 10.0 mi Calm Calm - N/A   Clear
6:53 AM 30.0 °F 25.2 °F 27.0 °F 88% 30.22 in 10.0 mi SW 4.6 mph - N/A   Mostly Cloudy
7:53 AM 28.9 °F 22.8 °F 26.1 °F 89% 30.25 in 10.0 mi SW 5.8 mph - N/A   Clear
8:37 AM 30.2 °F 24.3 °F 26.6 °F 86% 30.20 in 10.0 mi WSW 5.8 mph - N/A   Mostly Cloudy
8:49 AM 30.2 °F 20.8 °F 28.4 °F 93% 30.21 in 10.0 mi WSW 11.5 mph - N/A   Mostly Cloudy
8:53 AM 30.0 °F 21.7 °F 28.0 °F 92% 30.27 in 10.0 mi WSW 9.2 mph - N/A   Overcast
9:02 AM 30.2 °F 22.6 °F 28.4 °F 93% 30.21 in 4.0 mi West 8.1 mph - N/A   Overcast
9:53 AM 30.9 °F 21.7 °F 30.0 °F 96% 30.29 in 2.5 mi WSW 11.5 mph - N/A   Overcast
10:03 AM 30.2 °F 21.3 °F 30.2 °F 100% 30.23 in 1.2 mi WSW 10.4 mph - N/A   Overcast
10:50 AM 33.8 °F 26.4 °F 32.0 °F 93% 30.24 in 3.0 mi WSW 9.2 mph - N/A   Overcast
10:53 AM 33.1 °F 24.4 °F 32.0 °F 96% 30.30 in 4.0 mi WSW 11.5 mph - N/A   Overcast
11:20 AM 33.8 °F 24.3 °F 33.8 °F 100% 30.24 in 10.0 mi West 13.8 mph - N/A   Overcast
11:53 AM 37.9 °F 29.6 °F 33.1 °F 83% 30.30 in 10.0 mi West 13.8 mph 28.8 mph N/A   Overcast
12:53 PM 39.0 °F 29.3 °F 30.0 °F 70% 30.30 in 10.0 mi WSW 19.6 mph 25.3 mph N/A   Overcast
1:31 PM 39.2 °F 29.8 °F 28.4 °F 65% 30.26 in 10.0 mi WSW 18.4 mph 26.5 mph N/A   Mostly Cloudy
1:53 PM 37.9 °F 27.6 °F 28.0 °F 68% 30.32 in 10.0 mi WSW 20.7 mph 27.6 mph N/A   Partly Cloudy
2:45 PM 41.0 °F 31.9 °F 28.4 °F 61% 30.27 in 10.0 mi WSW 19.6 mph 26.5 mph N/A   Mostly Cloudy
2:53 PM 42.1 °F 33.6 °F 30.0 °F 62% 30.31 in 10.0 mi WSW 18.4 mph - N/A   Scattered Clouds
3:06 PM 42.8 °F 33.8 °F 30.2 °F 61% 30.27 in 10.0 mi WSW 21.9 mph 28.8 mph N/A   Mostly Cloudy
3:14 PM 42.8 °F 33.5 °F 28.4 °F 57% 30.27 in 10.0 mi WSW 23.0 mph 29.9 mph N/A   Scattered Clouds
3:37 PM 42.8 °F 34.5 °F 28.4 °F 57% 30.27 in 10.0 mi West 18.4 mph 27.6 mph N/A   Mostly Cloudy
3:51 PM 42.8 °F 33.8 °F 28.4 °F 57% 30.28 in 10.0 mi WSW 21.9 mph 28.8 mph N/A   Scattered Clouds
3:53 PM 43.0 °F 34.2 °F 28.0 °F 56% 30.32 in 10.0 mi WSW 20.7 mph 28.8 mph N/A   Scattered Clouds
4:53 PM 43.0 °F 34.0 °F 25.0 °F 49% 30.33 in 10.0 mi West 21.9 mph 29.9 mph N/A   Clear
5:53 PM 41.0 °F 32.2 °F 24.1 °F 51% 30.35 in 10.0 mi WSW 18.4 mph 26.5 mph N/A   Clear
7:53 PM 36.0 °F 26.7 °F 25.0 °F 64% 30.41 in 10.0 mi WSW 15.0 mph - N/A   Clear
8:53 PM 34.0 °F 24.2 °F 25.0 °F 70% 30.43 in 10.0 mi WSW 15.0 mph - N/A   Clear
9:53 PM 33.1 °F 25.5 °F 25.0 °F 72% 30.45 in 10.0 mi SW 9.2 mph - 0.00 in Snow Light Snow
10:53 PM 32.0 °F 24.2 °F 26.1 °F 79% 30.46 in 10.0 mi SSW 9.2 mph - 0.00 in   Clear
11:53 PM 30.0 °F 24.1 °F 25.0 °F 82% 30.46 in 10.0 mi South 5.8 mph - 0.00 in   Clear